Location: Loubersan
(43.4972°N, 0.4961°E)
Time: 14:39:02
(UTC+00:00)

Daily predictions for brighter satellites

Satellite Brightness Start Highest point End
(mag) Time Altitude Azimuth Time Altitude Azimuth Time Altitude Azimuth
GP-B 3.7 20:08:56 10° N 20:13:15 59° W 20:17:33 10° SSW
ADEOS 4.2 20:09:55 10° S 20:15:02 60° WSW 20:20:12 10° NNW
Helios 1A 3.7 20:13:46 10° NE 20:17:14 29° E 20:20:42 10° SSE
Okean 2 Rocket 4.2 20:17:07 10° NNE 20:20:54 28° ENE 20:24:33 11° SE
BlueWalker 3 4.5 20:22:01 10° NW 20:24:35 18° N 20:27:09 10° NE
CZ-4C R/B 2.4 20:23:32 10° S 20:27:04 28° ESE 20:31:16 10° NE
Cosmos 2151 Rocket 4.2 20:23:48 10° N 20:28:06 42° ENE 20:32:08 11° SSE
Cosmos 1656 Rocket 4.2 20:25:48 10° SW 20:31:18 65° WNW 20:36:47 10° NNE
IRS-1A Rocket 4.4 20:26:40 10° SSE 20:32:05 63° ENE 20:37:34 10° N
Okean 1 Rocket 4.1 20:28:23 10° NNE 20:32:11 28° ENE 20:35:19 13° SE
Cosmos 2297 3.7 20:27:42 10° SSW 20:33:19 78° ESE 20:39:01 10° NNE
Cosmos 2242 Rocket 4.0 20:29:22 10° SSW 20:33:41 66° W 20:38:04 10° N
ASTEX 1 4.2 20:35:08 10° NNE 20:39:30 32° E 20:43:06 14° SSE
Cosmos 2221 Rocket 4.2 20:35:18 10° SSE 20:39:30 40° E 20:43:44 10° NNE
Cosmos 2208 Rocket 4.5 20:34:24 10° NNW 20:39:36 61° WSW 20:44:51 10° S
Cosmos 1503 Rocket 3.9 20:34:42 10° SSW 20:39:51 85° ESE 20:45:02 10° NNE
Meteor 1-21 Rocket 4.2 20:35:01 10° S 20:40:38 68° E 20:46:11 10° NNE
COSMOS 2406 4.4 20:38:05 10° NW 20:43:25 40° WSW 20:48:42 10° S
Tiangong -1.1 20:40:57 10° SW 20:43:50 29° SSE 20:45:51 16° ESE
Cosmos 44 3.3 20:39:51 10° S 20:43:54 43° ESE 20:48:03 10° NE
Meteor PRIRODA 3.1 20:41:52 11° S 20:44:30 70° W 20:47:19 10° NNW
CZ-4B R/B 4.2 20:41:44 10° S 20:46:52 46° W 20:52:08 10° NNW
ISS -1.4 20:44:38 10° NW 20:47:17 21° N 20:49:55 10° ENE
Cosmos 773 Rocket 4.5 20:44:08 10° NNW 20:49:21 61° WSW 20:54:31 10° S
Cosmos 1354 Rocket 3.9 20:44:51 10° SSW 20:50:02 74° ESE 20:55:16 10° NNE
Cosmos 1674 Rocket 3.5 20:47:21 10° S 20:51:46 78° E 20:56:12 10° N
In-Cosmos 22 Rocket 4.3 20:48:28 10° S 20:54:17 89° W 21:00:04 10° N
CZ-4 R/B 4.1 20:52:41 10° WSW 20:54:19 12° W 20:55:58 10° WNW
Sich 1 Rocket 3.8 20:50:35 10° N 20:55:05 57° E 20:58:21 18° SSE
Ariane Rocket 3.6 20:54:15 17° SE 20:57:45 42° ENE 21:02:28 10° N
CZ-4B R/B 4.4 20:53:39 10° S 20:58:39 47° W 21:03:38 10° NNW
Cosmos 2180 Rocket 4.5 20:55:08 10° N 21:01:20 78° E 21:06:48 14° SSE
DELTA 2 R/B (1) 3.8 20:57:48 10° WSW 21:03:05 47° SSE 21:08:23 10° E
Terra 2.2 20:58:31 10° S 21:03:10 62° W 21:07:51 10° NNW
SAR-Lupe-2 4.0 21:04:34 24° SE 21:06:21 45° ENE 21:09:48 10° N
Cosmos 2369 Rocket 2.8 21:01:01 10° SW 21:06:39 61° WNW 21:12:18 10° NNE
Cosmos 1378 Rocket 4.3 21:02:55 10° SSW 21:07:05 51° W 21:11:17 10° N
Cosmos 1025 Rocket 2.9 21:04:57 13° S 21:08:49 74° E 21:13:10 10° NNE
Cosmos 2279 Rocket 4.4 21:03:55 10° NNW 21:10:06 65° W 21:16:16 10° S
Okean-O 3.4 21:06:40 10° S 21:10:49 49° W 21:15:06 10° NNW
Meteor 2-12 Rocket 4.4 21:06:18 10° S 21:12:27 86° E 21:18:37 10° N
Cosmos 1869 3.7 21:09:13 10° NNW 21:12:41 50° W 21:15:22 15° SSW
USA 245 3.3 21:09:58 19° S 21:12:58 79° WSW 21:16:24 10° NNW
Okean O Rocket 3.1 21:12:15 10° SSW 21:16:10 32° W 21:20:09 10° NNW
Lacrosse 5 rocket 4.2 21:16:41 10° NNW 21:17:59 11° N 21:19:16 10° NNE
Cosmos 2297 Rocket 4.3 21:16:34 10° N 21:19:55 16° NE 21:23:14 10° E
Helios 1B rocket 4.4 21:26:56 10° SW 21:29:45 21° W 21:32:34 10° NW
NOSS 3-4 (A) 4.3 21:24:38 10° NW 21:31:31 59° WSW 21:37:06 21° SSE
NOSS 3-4 (C) 4.3 21:24:40 10° NW 21:31:34 59° WSW 21:37:05 21° SSE
Spot 2 Rocket 4.1 21:28:31 16° S 21:32:26 52° W 21:37:24 10° NNW
Cosmos 1812 2.1 21:31:24 10° N 21:34:34 89° W 21:35:17 50° S
Cosmos 1867 3.6 21:29:30 10° SSW 21:34:49 58° ESE 21:40:11 10° NE
SPOT 3 Rocket 3.6 21:32:07 24° S 21:35:20 81° WSW 21:40:34 10° NNW
PSLV R/B 3.3 21:34:54 50° ESE 21:35:25 61° ENE 21:38:31 10° N
Cosmos 1900 4.3 21:34:39 10° SSW 21:39:39 90° E 21:44:46 10° NNE
Cosmos 1898 Rocket 3.6 21:38:08 28° S 21:40:42 54° ESE 21:45:49 10° NNE
DNEPR-1 R/B 4.2 21:37:54 10° NNW 21:41:59 45° NE 21:43:42 29° ESE
Cosmos 1538 Rocket 4.0 21:44:01 10° NNW 21:49:24 86° ENE 21:51:46 35° SSE
Cosmos 1818 4.2 21:44:17 10° NW 21:49:28 45° WSW 21:52:03 26° S
Cosmos 2227 Rocket 4.5 21:49:51 10° NNE 21:52:39 14° NE 21:55:27 10° ENE
USA 81 4.1 21:53:41 36° SSE 21:55:41 62° E 22:00:53 10° NNE
Gbstr 26 Del rocket 4.5 21:52:54 10° NW 21:57:52 47° NNE 22:03:18 13° E
Cosmos 2098 Rocket 2.9 21:58:50 10° N 22:02:07 47° E 22:02:14 47° E
BlueWalker 3 3.6 21:59:56 10° NW 22:03:09 28° NNE 22:05:03 18° ENE
Cosmos 1515 3.9 22:01:22 10° NNW 22:03:25 41° NW 22:03:25 41° NW
Cosmos 2228 3.1 22:03:25 10° N 22:07:36 57° E 22:08:13 51° ESE
Cosmos 1975 Rocket 3.0 22:08:21 43° SSW 22:09:44 79° W 22:14:03 10° N
Cosmos 1627 Rocket 4.5 22:07:45 26° SSW 22:11:26 80° W 22:17:34 10° N
Cosmos 381 Rocket 4.4 22:08:10 10° NNW 22:14:30 81° ENE 22:16:57 40° SSE
CZ-4C R/B 3.4 22:11:01 10° WSW 22:15:04 36° NW 22:20:07 10° NNE
Cosmos 372 Rocket 4.2 22:11:45 21° SSW 22:15:09 67° WNW 22:20:14 10° NNE
Aureole 1 Rocket 4.5 22:10:31 11° SSW 22:16:41 68° WNW 22:24:09 10° NNE
Cosmos 1455 Rocket 4.0 22:16:25 10° NNW 22:20:28 41° W 22:21:51 31° SW
Tiangong 0.2 22:17:27 10° WSW 22:18:21 17° WSW 22:18:21 17° WSW
CZ-4C R/B 4.3 22:17:47 10° NNE 22:20:28 33° ENE 22:20:28 33° ENE
ISS -3.1 22:21:17 10° NW 22:24:30 52° NNE 22:24:30 52° NNE
Cosmos 1656 3.5 22:26:02 44° S 22:27:47 72° ESE 22:33:18 10° NNE
Meteor 2-20 4.4 22:22:46 10° N 22:28:58 82° E 22:31:02 44° SSE
Cosmos 2112 Rocket 4.3 22:29:23 10° NNW 22:34:37 58° ENE 22:35:51 46° ESE
Cosmos 1937 Rocket 3.7 22:34:44 32° SW 22:37:04 66° WNW 22:42:11 10° NNE
Cosmos 2263 Rocket 4.5 22:35:10 10° N 22:38:27 16° NE 22:41:44 10° E
DELTA 2 DEB (DPAF) 3.8 22:36:12 10° N 22:40:07 73° WNW 22:40:19 70° WSW
RESURS DK-1 2.3 22:38:36 10° NNW 22:42:29 69° NE 22:42:29 69° NE
Cosmos 1400 Rocket 2.8 22:40:07 10° N 22:43:33 67° NNE 22:43:33 67° NNE
Cosmos 2266 Rocket 4.3 22:42:52 43° SE 22:44:29 54° E 22:50:41 10° NNE
Cosmos 1680 Rocket 3.4 22:39:28 10° NNW 22:44:47 84° ENE 22:45:47 60° SSE
Cosmos 1782 3.8 22:41:31 10° N 22:44:20 33° NE 22:44:20 33° NE
DELTA 2 R/B (1) 3.5 22:43:41 10° W 22:49:04 58° S 22:49:04 58° S
SL-08 ROCKET BODY 4.3 22:47:36 51° S 22:49:10 80° E 22:55:04 10° N
ARIANE 5 R/B 2.6 22:51:38 68° E 22:51:52 69° ENE 22:56:17 10° N
Cosmos 2058 3.3 22:53:29 51° NE 22:53:29 51° NE 22:56:44 10° NNE
CZ-2C R/B 3.6 22:49:01 10° NNE 22:53:45 83° ESE 22:54:09 74° SSE
Cosmos 923 Rocket 4.2 22:51:23 10° NNW 22:56:27 56° WSW 22:57:15 50° SW
Lacrosse 5 rocket 3.6 22:53:40 10° NNW 22:56:39 20° NNE 22:59:04 13° ENE
Cosmos 1553 Rocket 4.1 22:52:30 10° NNW 22:58:44 68° W 23:00:45 44° SSW
Cosmos 1536 Rocket 3.4 23:03:26 82° W 23:03:28 82° W 23:07:54 10° N
Cosmos 2297 Rocket 2.1 22:59:11 10° NNW 23:04:52 82° ENE 23:05:55 60° SE
Spot 4 3.8 23:06:04 68° ESE 23:06:28 72° ENE 23:11:15 10° N
Cosmos 1544 Rocket 4.4 23:07:06 10° NNW 23:11:10 39° W 23:11:24 39° W
Cosmos 1980 Rocket 3.4 23:12:32 26° E 23:12:32 26° E 23:16:39 10° NE
Cosmos 494 Rocket 3.8 23:07:34 10° NNW 23:12:49 87° ENE 23:13:19 73° SSE
Cosmos 1606 Rocket 3.7 23:09:25 10° N 23:13:33 64° ENE 23:13:33 64° ENE
Cosmos 1125 Rocket 4.5 23:15:22 32° E 23:15:22 32° E 23:19:39 10° NE
Cosmos 1697 Rocket 2.6 23:15:36 61° SE 23:16:01 63° ESE 23:21:38 10° NNE
Cosmos 1417 Rocket 4.4 23:12:03 10° N 23:18:13 83° W 23:19:33 57° S
S3M 3.9 23:14:00 10° N 23:20:19 87° E 23:21:42 58° S
Cosmos 2360 4.5 23:20:30 40° SW 23:22:28 63° WNW 23:28:08 10° NNE
Cosmos 1048 Rocket 4.1 23:20:05 10° NNW 23:25:27 66° ENE 23:26:09 59° ESE
GEOS 3 Rocket 3.7 23:20:55 10° NE 23:26:03 58° ESE 23:26:03 58° ESE
BREEZE-M DEB (TANK) 4.3 23:23:15 10° WNW 23:27:02 52° N 23:40:08 10° E
Cosmos 1356 Rocket 4.2 23:24:44 10° N 23:28:08 42° NE 23:28:08 42° NE
Cosmos 1932 4.4 23:29:35 60° SSE 23:30:27 68° ESE 23:36:46 10° NE
Cosmos 1726 Rocket 3.6 23:31:44 10° N 23:36:15 81° NE 23:36:15 81° NE
Cosmos 2227 Rocket 2.3 23:32:07 10° NNW 23:37:47 69° ENE 23:38:48 57° ESE
Meteor 2-3 Rocket 3.8 23:38:19 57° SE 23:38:58 61° E 23:44:39 10° NNE
Cosmos 1655 Rocket 4.0 23:38:29 59° S 23:39:47 81° E 23:46:11 10° N
BlueWalker 3 3.8 23:37:28 10° WNW 23:38:56 22° WNW 23:38:56 22° WNW
Cosmos 2058 Rocket 3.8 23:36:55 10° N 23:41:04 46° ENE 23:41:04 46° ENE
ALOS 2 2.9 23:42:55 59° WNW 23:42:55 59° WNW 23:46:54 10° NNW
Gbstr 26 Del rocket 3.8 23:39:07 10° WNW 23:44:44 66° SW 23:45:18 63° S
PSLV R/B 3.7 23:41:52 10° N 23:46:32 81° WNW 23:46:32 81° WNW
Cosmos 1892 Rocket 3.8 23:55:06 66° NNW 23:55:06 66° NNW 23:58:58 10° N
EO 1 Delta rocket 3.7 23:54:39 86° ESE 23:54:43 86° E 23:59:49 10° N
